Wind_Speed
13 13 13 14 14 15 16 16 16 15 15 16 16 16 16 17 18 19 19 19 18 19 19 19 19 19 18 18 18 19 19 20 20 21 21 21 21 21
13 13 14 14 15 15 16 16 16 16 15 16 17 18 18 19 19 20 20 19 19 19 20 20 19 19 19 19 19 19 20 21 21 22 22 22 22 22
14 14 15 16 16 17 16 17 17 17 17 18 19 20 20 21 22 21 21 21 21 21 21 21 20 20 20 20 20 21 21 22 22 22 23 23 23 22
16 17 17 17 18 18 18 18 18 19 19 20 21 21 21 22 22 22 22 22 22 22 22 22 21 20 21 21 21 21 22 23 23 23 23 23 23 23
18 19 19 19 20 21 21 20 21 22 22 22 22 23 23 23 23 24 24 23 23 23 23 23 22 22 21 22 22 22 22 22 22 23 24 24 24 24
20 21 22 22 22 23 23 23 23 24 24 24 24 24 24 25 25 24 24 24 24 24 24 24 24 22 22 22 23 22 23 23 23 23 24 24 24 23
21 22 23 23 23 24 24 24 24 24 25 26 26 26 26 25 26 25 25 25 25 24 24 25 25 24 23 23 24 24 24 24 24 23 24 24 24 24
22 23 24 25 25 24 24 24 25 25 26 27 27 27 27 26 26 26 26 25 25 24 24 24 25 25 24 24 24 24 25 25 24 24 24 24 24 24
23 24 25 26 26 25 25 24 24 26 26 27 27 27 27 27 26 26 26 26 24 24 24 24 24 24 25 25 25 25 25 25 25 25 25 25 24 25
24 25 26 26 26 25 25 24 25 25 26 26 26 26 26 26 27 26 25 24 24 24 24 24 24 24 25 25 25 25 26 26 27 27 26 26 26 26
26 26 26 26 26 26 25 25 25 25 26 26 26 26 26 26 27 26 25 24 24 24 24 24 24 24 24 24 25 25 26 27 27 27 27 26 27 28
25 25 26 26 27 26 26 26 25 25 26 26 25 25 25 26 26 25 24 24 24 25 25 25 24 24 24 24 25 25 26 27 27 27 28 28 28 28
26 26 26 26 26 25 25 25 25 25 26 26 26 26 25 25 25 26 26 26 26 26 26 25 25 25 25 25 25 26 26 26 27 28 28 28 28 28
27 27 26 26 26 26 26 26 26 26 26 26 26 26 26 26 26 26 26 26 26 26 26 26 25 25 25 25 26 26 27 27 27 28 28 28 28 28
27 26 26 27 27 27 27 26 27 27 27 27 27 27 27 27 27 27 27 27 26 26 25 25 25 25 25 26 26 26 26 27 27 27 27 27 27 28
27 26 26 26 27 26 26 26 27 28 28 27 27 28 28 28 28 28 28 27 26 25 25 25 25 25 25 26 26 26 26 27 27 28 27 27 27 27
27 27 27 27 27 27 27 27 27 28 27 27 27 28 28 28 28 27 27 27 26 26 25 25 26 26 26 26 26 26 26 26 27 27 27 27 26 27
27 27 27 27 28 28 28 28 27 27 27 27 28 28 28 28 28 27 26 26 26 26 26 26 25 25 25 25 26 26 26 25 26 26 27 27 27 27
27 27 27 26 26 27 27 27 27 28 28 28 28 28 27 27 27 26 26 26 25 26 26 25 25 25 25 25 25 26 26 26 26 26 26 27 27 27
27 27 27 27 27 27 27 28 27 27 28 28 28 27 27 26 26 26 25 25 26 26 26 25 25 25 25 25 25 26 26 26 26 26 26 25 25 26
27 27 27 27 28 27 28 28 27 27 28 28 27 27 26 26 26 26 26 26 26 26 26 26 25 25 25 25 25 26 26 26 26 25 26 26 26 26
27 27 27 28 28 28 28 27 27 27 27 27 27 27 27 27 27 26 26 26 26 26 26 26 25 25 25 24 25 25 25 25 25 25 25 25 25 24
27 27 28 28 27 27 28 27 27 27 27 28 28 28 28 28 28 27 26 26 26 26 26 26 25 24 24 24 24 24 24 24 24 24 24 25 24 23
Wind_Direction
288 288 289 290 294 293 291 291 294 295 295 295 295 296 296 297 297 296 295 293 293 292 289 286 281 278 276 276 276 275 274 273 272 270 270 269 270 271
289 289 290 290 292 294 294 293 294 295 294 292 294 295 295 295 294 294 295 293 292 293 292 289 283 280 276 276 275 274 276 276 275 272 270 271 270 270
287 288 290 290 292 294 294 292 293 294 295 294 295 294 294 294 294 293 292 290 290 290 291 289 285 282 278 275 273 272 274 275 274 272 271 271 271 270
290 289 289 290 292 293 292 292 292 293 296 298 296 296 294 293 293 292 290 289 289 289 288 287 285 284 281 277 276 274 273 274 274 273 273 271 268 268
289 290 289 290 291 292 292 291 291 292 294 296 296 296 295 293 290 289 287 286 287 287 286 286 285 281 281 278 276 275 274 274 274 275 275 274 271 268
288 289 288 288 289 290 290 290 291 292 292 294 295 294 294 292 290 289 287 286 285 285 285 284 284 282 280 279 275 274 275 275 275 274 275 274 272 271
287 289 289 288 290 290 290 289 290 292 292 294 294 294 294 293 290 287 287 286 285 284 285 284 283 281 278 278 277 275 276 277 278 277 277 274 272 271
289 289 290 291 291 291 291 290 290 292 294 294 295 295 295 292 290 288 286 285 284 284 284 285 284 281 279 279 276 274 275 276 276 276 277 276 274 272
288 289 290 292 292 292 293 292 292 294 295 296 295 295 294 293 292 290 288 285 284 283 283 283 283 281 279 278 276 275 275 276 277 277 275 275 275 274
287 288 289 291 293 293 293 292 293 295 297 298 297 296 295 295 294 293 292 288 285 284 284 283 282 282 281 279 277 277 276 277 277 277 275 274 275 276
289 290 291 291 293 292 292 292 293 294 296 299 297 296 296 297 298 295 291 289 288 286 285 283 282 283 283 282 280 278 278 279 279 278 278 275 275 276
292 291 291 290 290 291 292 293 294 295 296 298 297 297 296 295 295 295 292 289 288 287 286 283 282 282 282 283 282 280 280 281 280 280 280 277 276 276
292 291 291 291 291 292 293 293 293 295 296 297 296 296 298 297 296 295 292 289 287 287 286 285 283 282 282 281 281 280 280 281 281 280 281 278 276 277
293 293 294 293 293 294 293 291 291 293 295 296 296 296 297 298 299 297 294 289 288 286 285 285 285 284 282 281 281 281 281 281 281 281 281 280 277 276
294 291 291 293 295 295 294 292 292 293 294 295 295 294 295 296 297 297 295 292 290 289 286 285 285 284 284 283 281 281 281 282 283 282 281 281 279 276
290 291 291 292 294 293 293 292 293 293 293 294 295 294 293 293 293 295 295 293 291 289 287 285 285 285 284 284 284 283 282 283 284 283 281 281 282 279
290 291 292 292 293 292 291 292 292 293 293 294 294 294 294 294 294 295 295 292 289 287 286 285 286 286 286 286 286 285 284 284 285 284 282 281 281 283
290 290 290 291 291 292 292 293 294 294 294 295 295 294 294 295 295 294 294 293 291 288 286 286 286 287 288 287 287 285 285 285 287 286 284 282 280 282
290 290 290 290 291 292 293 293 293 293 294 294 294 294 294 295 294 293 293 293 293 290 289 288 288 287 288 289 288 287 288 288 288 288 286 284 282 283
288 290 291 291 292 294 295 295 294 293 294 294 294 293 293 294 294 294 293 293 293 292 290 289 288 287 288 288 288 289 290 290 289 289 288 288 286 285
286 288 289 290 291 293 294 294 294 295 294 293 294 293 293 294 295 294 292 292 292 292 291 289 288 288 289 288 289 290 291 292 292 290 289 288 288 287
285 286 288 290 291 292 293 293 293 294 294 294 293 293 293 294 294 293 292 292 292 292 291 289 288 290 290 290 290 292 292 292 292 291 292 292 292 290
284 285 287 289 290 292 292 292 291 291 292 293 293 293 292 293 293 292 291 291 291 291 291 289 288 289 289 290 290 293 293 292 293 294 295 294 293 291
Height
5878 5877 5876 5875 5874 5873 5872 5871 5870 5868 5867 5865 5864 5862 5861 5859 5857 5855 5854 5852 5851 5849 5848 5846 5845 5844 5843 5843 5842 5842 5842 5842 5842 5842 5842 5841 5841 5841
5874 5874 5873 5872 5871 5869 5868 5867 5866 5864 5863 5861 5859 5858 5856 5854 5852 5851 5849 5848 5846 5844 5842 5841 5839 5839 5838 5838 5837 5837 5836 5836 5836 5836 5836 5836 5836 5836
5871 5870 5869 5868 5866 5865 5864 5863 5861 5860 5859 5857 5854 5852 5851 5849 5847 5845 5844 5842 5841 5839 5837 5835 5834 5833 5832 5832 5832 5831 5831 5830 5830 5829 5829 5830 5829 5830
5866 5865 5864 5863 5862 5861 5859 5858 5857 5855 5854 5852 5849 5847 5845 5843 5841 5839 5838 5836 5834 5833 5831 5830 5829 5828 5827 5826 5826 5825 5825 5824 5824 5823 5823 5823 5823 5823
5862 5861 5860 5858 5857 5855 5854 5852 5851 5850 5848 5846 5844 5841 5839 5837 5835 5833 5831 5830 5828 5827 5825 5824 5823 5822 5821 5820 5819 5819 5819 5818 5818 5817 5817 5817 5816 5816
5856 5855 5854 5853 5851 5850 5848 5846 5845 5843 5841 5840 5838 5835 5833 5830 5828 5826 5825 5823 5822 5820 5819 5818 5816 5815 5814 5814 5813 5813 5812 5812 5811 5811 5810 5810 5810 5809
5851 5849 5848 5846 5845 5843 5842 5840 5838 5837 5835 5833 5831 5829 5826 5824 5822 5819 5818 5816 5815 5813 5812 5811 5810 5809 5808 5807 5807 5806 5806 5805 5805 5804 5804 5803 5803 5803
5845 5843 5842 5840 5838 5836 5834 5833 5831 5830 5828 5826 5824 5822 5819 5817 5814 5813 5811 5809 5808 5807 5805 5804 5803 5802 5801 5800 5800 5799 5799 5799 5798 5798 5797 5797 5796 5796
5839 5837 5835 5834 5832 5830 5828 5826 5825 5823 5821 5819 5817 5814 5812 5810 5808 5806 5804 5802 5801 5800 5798 5797 5796 5795 5794 5793 5792 5792 5792 5792 5791 5791 5790 5790 5789 5789
5832 5831 5829 5827 5825 5823 5822 5820 5818 5816 5814 5812 5810 5808 5805 5802 5801 5799 5797 5795 5794 5792 5791 5790 5789 5788 5787 5786 5785 5785 5785 5784 5784 5783 5782 5782 5782 5782
5826 5824 5822 5820 5819 5817 5815 5813 5811 5809 5807 5805 5803 5800 5797 5795 5793 5792 5790 5788 5787 5785 5784 5783 5782 5781 5780 5779 5778 5777 5777 5776 5776 5775 5775 5774 5774 5774
5819 5817 5815 5814 5812 5810 5808 5806 5805 5803 5801 5799 5796 5793 5791 5788 5786 5784 5783 5781 5779 5778 5777 5776 5775 5774 5773 5772 5770 5770 5769 5768 5768 5767 5767 5766 5766 5765
5812 5810 5809 5806 5805 5803 5801 5799 5798 5796 5794 5792 5789 5787 5784 5781 5779 5777 5776 5774 5772 5771 5770 5769 5768 5766 5766 5765 5763 5762 5761 5760 5760 5759 5758 5758 5757 5757
5805 5803 5801 5799 5798 5796 5794 5792 5790 5788 5787 5784 5782 5780 5778 5775 5773 5770 5768 5766 5765 5764 5762 5761 5760 5759 5758 5758 5756 5755 5754 5753 5752 5751 5750 5749 5749 5748
5798 5796 5794 5792 5790 5788 5787 5785 5783 5781 5779 5777 5775 5773 5771 5768 5766 5763 5761 5759 5757 5756 5755 5753 5752 5751 5751 5750 5749 5748 5746 5745 5744 5743 5742 5741 5740 5740
5791 5789 5787 5785 5783 5781 5779 5777 5776 5774 5772 5770 5768 5765 5763 5761 5759 5756 5754 5752 5750 5748 5747 5746 5745 5744 5743 5742 5741 5740 5739 5737 5736 5735 5734 5732 5731 5730
5783 5781 5780 5778 5776 5774 5772 5770 5768 5766 5764 5762 5760 5758 5756 5754 5751 5749 5747 5745 5743 5742 5740 5738 5737 5736 5735 5735 5733 5732 5730 5729 5728 5727 5726 5725 5723 5722
5776 5774 5772 5770 5768 5766 5764 5762 5760 5758 5756 5755 5753 5751 5749 5747 5744 5742 5740 5738 5736 5734 5732 5731 5729 5729 5728 5727 5726 5724 5723 5721 5720 5718 5717 5716 5715 5714
5769 5767 5765 5762 5760 5758 5756 5755 5753 5751 5749 5747 5745 5744 5742 5739 5737 5735 5733 5731 5729 5727 5725 5723 5722 5721 5720 5719 5717 5716 5715 5713 5712 5710 5709 5707 5707 5705
5762 5760 5758 5756 5753 5751 5749 5747 5745 5743 5741 5739 5738 5736 5734 5732 5730 5728 5726 5724 5722 5720 5718 5716 5715 5714 5713 5712 5710 5708 5707 5705 5704 5702 5701 5699 5698 5697
5754 5752 5750 5748 5746 5744 5742 5740 5737 5736 5734 5732 5730 5728 5726 5724 5722 5720 5718 5716 5715 5713 5711 5709 5707 5706 5705 5703 5702 5701 5699 5697 5695 5694 5693 5691 5690 5688
5746 5744 5742 5741 5739 5736 5734 5732 5730 5728 5726 5724 5722 5721 5719 5717 5715 5713 5711 5709 5707 5705 5703 5701 5699 5698 5697 5695 5694 5692 5691 5689 5687 5685 5684 5683 5681 5680
5738 5737 5735 5733 5731 5729 5727 5725 5723 5721 5719 5717 5715 5713 5711 5709 5707 5705 5703 5701 5699 5697 5695 5694 5692 5690 5689 5687 5686 5684 5683 5681 5679 5678 5676 5674 5673 5671